VTD754 UWSG-UWLL

Flight info

Callsign VTD754
Flight time 1h 16m
Altitude 15000
Route OGRER T789 NEPNI
Aircraft DA42/L-L/C

Departure

Time 2026-04-24 10:44
Airport Gagarin International Airport (UWSG)

Arrival

Time 2026-04-24 12:01
Airport Ulyanovsk Baratayevka Airport (UWLL)
Time Latitude Longitude Altitude Speed Heading
2026-04-24 10:30 51.71576 46.17236 99 ft 0 kts 328°
2026-04-24 10:36 51.71577 46.17236 99 ft 0 kts 326°
2026-04-24 10:40 51.71601 46.17223 99 ft 8 kts
2026-04-24 10:40 51.71611 46.17293 100 ft 7 kts 148°
2026-04-24 10:40 51.71625 46.17370 100 ft 11 kts 85°
2026-04-24 10:40 51.71575 46.17426 100 ft 8 kts 182°
2026-04-24 10:41 51.71514 46.17424 100 ft 16 kts 185°
2026-04-24 10:41 51.71372 46.17414 101 ft 5 kts 180°
2026-04-24 10:41 51.71371 46.17414 100 ft 0 kts 180°
2026-04-24 10:42 51.71354 46.17413 101 ft 10 kts 183°
2026-04-24 10:42 51.71272 46.17392 103 ft 12 kts 215°
2026-04-24 10:43 51.71259 46.17344 102 ft 0 kts 270°
2026-04-24 10:43 51.71259 46.17322 102 ft 17 kts 269°
2026-04-24 10:43 51.71267 46.16759 96 ft 78 kts 269°
2026-04-24 10:44 51.71307 46.15764 242 ft 95 kts 264°
2026-04-24 10:44 51.71351 46.14683 488 ft 98 kts 266°
2026-04-24 10:44 51.71397 46.13578 739 ft 101 kts 256°
2026-04-24 10:44 51.71305 46.12388 806 ft 112 kts 248°
2026-04-24 10:45 51.72054 46.11914 630 ft 175 kts 31°
2026-04-24 10:45 51.73177 46.12511 889 ft 174 kts 359°
2026-04-24 10:45 51.74271 46.11872 1092 ft 164 kts 311°
2026-04-24 10:45 51.74778 46.10399 1316 ft 143 kts 265°
2026-04-24 10:46 51.74526 46.09003 1535 ft 125 kts 224°
2026-04-24 10:46 51.73960 46.07961 1784 ft 123 kts 221°
2026-04-24 10:46 51.73401 46.06973 2063 ft 116 kts 221°
2026-04-24 10:46 51.72915 46.06109 2652 ft 91 kts 219°
2026-04-24 10:47 51.72536 46.05438 3177 ft 75 kts 217°
2026-04-24 10:47 51.72173 46.04808 3492 ft 78 kts 218°
2026-04-24 10:47 51.71844 46.04096 3845 ft 81 kts 229°
2026-04-24 10:47 51.71680 46.03184 4194 ft 91 kts 251°
2026-04-24 10:48 51.71788 46.02116 4516 ft 105 kts 276°
2026-04-24 10:48 51.72248 46.01105 4852 ft 121 kts 307°
2026-04-24 10:48 51.73049 46.00518 5203 ft 134 kts 344°
2026-04-24 10:48 51.73999 46.00496 5564 ft 138 kts 357°
2026-04-24 10:49 51.74962 46.00548 5954 ft 139 kts 358°
2026-04-24 10:49 51.75601 46.00587 6206 ft 139 kts 358°
2026-04-24 10:49 51.76571 46.00645 6580 ft 140 kts 358°
2026-04-24 10:49 51.77546 46.00702 6964 ft 141 kts 358°
2026-04-24 10:50 51.78526 46.00759 7305 ft 141 kts 357°
2026-04-24 10:50 51.79512 46.00814 7629 ft 142 kts 358°
2026-04-24 10:50 51.80507 46.00870 7944 ft 143 kts 358°
2026-04-24 10:50 51.81505 46.00934 8276 ft 145 kts
2026-04-24 10:51 51.82447 46.01481 8615 ft 145 kts 40°
2026-04-24 10:51 51.83120 46.02634 8959 ft 141 kts 62°
2026-04-24 10:51 51.83711 46.03902 9303 ft 141 kts 63°
2026-04-24 10:51 51.84154 46.04865 9547 ft 141 kts 63°
2026-04-24 10:52 51.84743 46.06141 9875 ft 142 kts 63°
2026-04-24 10:52 51.85333 46.07420 10206 ft 142 kts 63°
2026-04-24 10:52 51.85918 46.08684 10515 ft 142 kts 63°
2026-04-24 10:52 51.86511 46.09966 10847 ft 142 kts 63°
2026-04-24 10:53 51.87105 46.11250 11219 ft 142 kts 63°
2026-04-24 10:53 51.87698 46.12533 11610 ft 143 kts 63°
2026-04-24 10:53 51.88294 46.13822 12003 ft 143 kts 63°
2026-04-24 10:53 51.88890 46.15114 12365 ft 143 kts 64°
2026-04-24 10:54 51.89486 46.16404 12736 ft 143 kts 64°
2026-04-24 10:54 51.90082 46.17693 13133 ft 143 kts 64°
2026-04-24 10:54 51.90678 46.18987 13534 ft 144 kts 64°
2026-04-24 10:54 51.91278 46.20289 13925 ft 145 kts 64°
2026-04-24 10:55 51.91883 46.21601 14334 ft 146 kts 64°
2026-04-24 10:55 51.92514 46.22991 14481 ft 167 kts 64°
2026-04-24 10:55 51.93247 46.24607 14488 ft 188 kts 62°
2026-04-24 10:55 51.94056 46.26358 14493 ft 200 kts 61°
2026-04-24 10:56 51.94902 46.28181 14488 ft 204 kts 60°
2026-04-24 10:56 51.95755 46.30025 14488 ft 204 kts 60°
2026-04-24 10:56 51.96603 46.31866 14486 ft 204 kts 61°
2026-04-24 10:56 51.97447 46.33704 14487 ft 203 kts 61°
2026-04-24 10:57 51.98287 46.35536 14489 ft 202 kts 61°
2026-04-24 10:57 51.99123 46.37365 14489 ft 202 kts 61°
2026-04-24 10:57 51.99958 46.39190 14488 ft 201 kts 61°
2026-04-24 10:57 52.00794 46.40976 14493 ft 203 kts 56°
2026-04-24 10:58 52.01901 46.42440 14493 ft 209 kts 33°
2026-04-24 10:58 52.03189 46.43549 14497 ft 210 kts 31°
2026-04-24 10:58 52.04489 46.44628 14488 ft 209 kts 31°
2026-04-24 10:58 52.05785 46.45708 14486 ft 209 kts 31°
2026-04-24 10:59 52.07077 46.46794 14492 ft 209 kts 31°
2026-04-24 10:59 52.08367 46.47880 14489 ft 209 kts 31°
2026-04-24 10:59 52.09657 46.48967 14491 ft 209 kts 31°
2026-04-24 10:59 52.10946 46.50054 14492 ft 208 kts 31°
2026-04-24 11:00 52.12235 46.51140 14490 ft 208 kts 31°
2026-04-24 11:00 52.13518 46.52221 14492 ft 208 kts 31°
2026-04-24 11:00 52.14782 46.53290 14493 ft 207 kts 31°
2026-04-24 11:00 52.16064 46.54373 14494 ft 207 kts 31°
2026-04-24 11:01 52.17343 46.55453 14493 ft 207 kts 31°
2026-04-24 11:01 52.18621 46.56533 14496 ft 207 kts 31°
2026-04-24 11:01 52.19899 46.57615 14494 ft 206 kts 33°
2026-04-24 11:01 52.21175 46.58697 14497 ft 207 kts 33°
2026-04-24 11:02 52.22453 46.59781 14498 ft 207 kts 33°
2026-04-24 11:02 52.23735 46.60870 14498 ft 207 kts 33°
2026-04-24 11:02 52.25015 46.61956 14500 ft 207 kts 33°
2026-04-24 11:02 52.26292 46.63044 14493 ft 207 kts 34°
2026-04-24 11:03 52.27559 46.64147 14487 ft 206 kts 33°
2026-04-24 11:03 52.28723 46.65141 14488 ft 206 kts 33°
2026-04-24 11:03 52.30002 46.66215 14490 ft 207 kts 32°
2026-04-24 11:03 52.31282 46.67282 14490 ft 206 kts 33°
2026-04-24 11:04 52.32557 46.68367 14493 ft 206 kts 33°
2026-04-24 11:04 52.33827 46.69453 14491 ft 206 kts 33°
2026-04-24 11:04 52.35091 46.70534 14492 ft 205 kts 33°
2026-04-24 11:04 52.36354 46.71613 14492 ft 205 kts 33°
2026-04-24 11:05 52.37389 46.72497 14486 ft 204 kts 33°
2026-04-24 11:05 52.38641 46.73570 14493 ft 202 kts 33°
2026-04-24 11:05 52.39891 46.74637 14491 ft 203 kts 33°
2026-04-24 11:05 52.41143 46.75707 14495 ft 204 kts 33°
2026-04-24 11:06 52.42407 46.76790 14500 ft 205 kts 33°
2026-04-24 11:06 52.43675 46.77876 14500 ft 206 kts 33°
2026-04-24 11:06 52.44938 46.78960 14491 ft 205 kts 33°
2026-04-24 11:06 52.46199 46.80044 14490 ft 205 kts 33°
2026-04-24 11:07 52.48710 46.82206 14501 ft 202 kts 33°
2026-04-24 11:07 52.49939 46.83257 14503 ft 201 kts 33°
2026-04-24 11:07 52.51182 46.84324 14505 ft 202 kts 33°
2026-04-24 11:08 52.52430 46.85401 14502 ft 203 kts 33°
2026-04-24 11:08 52.53688 46.86486 14499 ft 205 kts 33°
2026-04-24 11:08 52.54960 46.87586 14498 ft 207 kts 33°
2026-04-24 11:08 52.56230 46.88679 14492 ft 205 kts 33°
2026-04-24 11:09 52.57483 46.89743 14498 ft 201 kts 33°
2026-04-24 11:09 52.58715 46.90817 14502 ft 200 kts 34°
2026-04-24 11:09 52.59944 46.91893 14503 ft 200 kts 34°
2026-04-24 11:09 52.61178 46.92959 14502 ft 200 kts 34°
2026-04-24 11:10 52.62407 46.94019 14500 ft 199 kts 33°
2026-04-24 11:10 52.63635 46.95079 14501 ft 199 kts 34°
2026-04-24 11:10 52.64864 46.96143 14500 ft 199 kts 34°
2026-04-24 11:10 52.66089 46.97205 14501 ft 199 kts 34°
2026-04-24 11:11 52.67314 46.98268 14497 ft 199 kts 34°
2026-04-24 11:11 52.68539 46.99333 14488 ft 199 kts 32°
2026-04-24 11:11 52.69762 47.00394 14485 ft 199 kts 32°
2026-04-24 11:11 52.70990 47.01459 14486 ft 200 kts 32°
2026-04-24 11:12 52.72219 47.02528 14484 ft 200 kts 32°
2026-04-24 11:12 52.73453 47.03603 14485 ft 201 kts 32°
2026-04-24 11:12 52.74690 47.04680 14486 ft 201 kts 32°
2026-04-24 11:12 52.75928 47.05760 14486 ft 202 kts 32°
2026-04-24 11:13 52.77167 47.06840 14489 ft 201 kts 32°
2026-04-24 11:13 52.78407 47.07920 14492 ft 201 kts 32°
2026-04-24 11:13 52.79642 47.08998 14492 ft 201 kts 32°
2026-04-24 11:13 52.80878 47.10077 14491 ft 201 kts 32°
2026-04-24 11:14 52.82110 47.11155 14493 ft 201 kts 32°
2026-04-24 11:14 52.83344 47.12235 14494 ft 201 kts 32°
2026-04-24 11:14 52.84578 47.13316 14493 ft 201 kts 32°
2026-04-24 11:14 52.85809 47.14398 14494 ft 200 kts 32°
2026-04-24 11:15 52.87024 47.15464 14493 ft 200 kts 32°
2026-04-24 11:15 52.88254 47.16542 14496 ft 200 kts 32°
2026-04-24 11:15 52.89483 47.17621 14495 ft 200 kts 32°
2026-04-24 11:15 52.90711 47.18699 14489 ft 200 kts 32°
2026-04-24 11:16 52.91937 47.19777 14490 ft 199 kts 32°
2026-04-24 11:16 52.93161 47.20857 14486 ft 198 kts 32°
2026-04-24 11:16 52.94377 47.21926 14490 ft 198 kts 31°
2026-04-24 11:16 52.95600 47.23000 14490 ft 199 kts 31°
2026-04-24 11:17 52.96826 47.24080 14495 ft 200 kts 31°
2026-04-24 11:17 52.98054 47.25165 14497 ft 200 kts 31°
2026-04-24 11:17 52.99284 47.26251 14497 ft 200 kts 31°
2026-04-24 11:17 53.00514 47.27336 14496 ft 200 kts 31°
2026-04-24 11:18 53.01740 47.28419 14521 ft 200 kts 32°
2026-04-24 11:18 53.02965 47.29503 14505 ft 199 kts 32°
2026-04-24 11:18 53.04182 47.30582 14503 ft 197 kts 32°
2026-04-24 11:18 53.05390 47.31652 14501 ft 197 kts 31°
2026-04-24 11:19 53.06595 47.32719 14499 ft 196 kts 31°
2026-04-24 11:19 53.07795 47.33782 14503 ft 196 kts 32°
2026-04-24 11:19 53.08998 47.34849 14503 ft 195 kts 32°
2026-04-24 11:19 53.10196 47.35911 14503 ft 195 kts 32°
2026-04-24 11:20 53.11393 47.36975 14505 ft 195 kts 32°
2026-04-24 11:20 53.12584 47.38035 14494 ft 194 kts 32°
2026-04-24 11:20 53.13776 47.39096 14495 ft 193 kts 32°
2026-04-24 11:20 53.14963 47.40152 14497 ft 193 kts 32°
2026-04-24 11:21 53.16151 47.41210 14502 ft 194 kts 32°
2026-04-24 11:21 53.17343 47.42272 14483 ft 194 kts 31°
2026-04-24 11:21 53.18533 47.43334 14500 ft 194 kts 31°
2026-04-24 11:21 53.19727 47.44397 14500 ft 195 kts 31°
2026-04-24 11:22 53.20922 47.45463 14503 ft 195 kts 31°
2026-04-24 11:22 53.22117 47.46531 14503 ft 195 kts 31°
2026-04-24 11:22 53.23313 47.47600 14504 ft 195 kts 31°
2026-04-24 11:22 53.24511 47.48672 14505 ft 196 kts 31°
2026-04-24 11:23 53.25712 47.49746 14505 ft 196 kts 31°
2026-04-24 11:23 53.26912 47.50821 14506 ft 196 kts 31°
2026-04-24 11:23 53.28112 47.51895 14513 ft 196 kts 31°
2026-04-24 11:23 53.29311 47.52969 14513 ft 196 kts 31°
2026-04-24 11:24 53.30508 47.54044 14506 ft 195 kts 31°
2026-04-24 11:24 53.31703 47.55117 14507 ft 195 kts 31°
2026-04-24 11:24 53.32899 47.56191 14508 ft 195 kts 31°
2026-04-24 11:24 53.34095 47.57267 14508 ft 195 kts 31°
2026-04-24 11:25 53.35297 47.58349 14402 ft 198 kts 31°
2026-04-24 11:25 53.36507 47.59440 14225 ft 197 kts 31°
2026-04-24 11:25 53.37692 47.60507 14052 ft 195 kts 31°
2026-04-24 11:25 53.38898 47.61593 13798 ft 198 kts 31°
2026-04-24 11:26 53.40119 47.62694 13554 ft 200 kts 31°
2026-04-24 11:26 53.41343 47.63797 13304 ft 200 kts 31°
2026-04-24 11:26 53.42572 47.64906 13009 ft 201 kts 31°
2026-04-24 11:26 53.43802 47.66018 12733 ft 201 kts 31°
2026-04-24 11:27 53.45032 47.67130 12462 ft 201 kts 31°
2026-04-24 11:27 53.46259 47.68240 12193 ft 200 kts 32°
2026-04-24 11:27 53.47485 47.69350 11930 ft 200 kts 32°
2026-04-24 11:27 53.48764 47.70285 11664 ft 200 kts 24°
2026-04-24 11:28 53.50060 47.71140 11399 ft 200 kts 24°
2026-04-24 11:28 53.51361 47.71993 11137 ft 200 kts 24°
2026-04-24 11:28 53.52656 47.72846 10878 ft 200 kts 24°
2026-04-24 11:28 53.53950 47.73700 10620 ft 199 kts 24°
2026-04-24 11:29 53.55238 47.74552 10380 ft 198 kts 24°
2026-04-24 11:29 53.56518 47.75399 10127 ft 197 kts 24°
2026-04-24 11:29 53.57792 47.76242 9884 ft 196 kts 24°
2026-04-24 11:29 53.59063 47.77083 9639 ft 196 kts 24°
2026-04-24 11:30 53.60329 47.77922 9384 ft 195 kts 24°
2026-04-24 11:30 53.61592 47.78760 9110 ft 195 kts 24°
2026-04-24 11:30 53.62847 47.79592 8838 ft 194 kts 24°
2026-04-24 11:30 53.64100 47.80425 8568 ft 193 kts 24°
2026-04-24 11:31 53.65346 47.81253 8300 ft 192 kts 24°
2026-04-24 11:31 53.66587 47.82078 8031 ft 191 kts 25°
2026-04-24 11:31 53.67820 47.82899 7759 ft 190 kts 25°
2026-04-24 11:31 53.69043 47.83712 7512 ft 187 kts 24°
2026-04-24 11:32 53.70208 47.84366 7504 ft 173 kts 10°
2026-04-24 11:32 53.71370 47.84467 7472 ft 166 kts 360°
2026-04-24 11:32 53.72528 47.84486 7311 ft 167 kts 359°
2026-04-24 11:32 53.73694 47.84499 7151 ft 168 kts 359°
2026-04-24 11:33 53.74864 47.84515 6998 ft 168 kts 359°
2026-04-24 11:33 53.76035 47.84532 6846 ft 168 kts 359°
2026-04-24 11:33 53.77213 47.84549 6688 ft 170 kts 360°
2026-04-24 11:33 53.78396 47.84567 6544 ft 170 kts 360°
2026-04-24 11:34 53.79583 47.84585 6395 ft 171 kts 360°
2026-04-24 11:34 53.80772 47.84603 6243 ft 171 kts 360°
2026-04-24 11:34 53.81954 47.84621 6090 ft 170 kts 360°
2026-04-24 11:34 53.83136 47.84639 5944 ft 170 kts 360°
2026-04-24 11:35 53.84316 47.84657 5792 ft 170 kts 360°
2026-04-24 11:35 53.85498 47.84674 5628 ft 169 kts 360°
2026-04-24 11:35 53.86675 47.84692 5468 ft 169 kts 360°
2026-04-24 11:35 53.87852 47.84710 5309 ft 169 kts 360°
2026-04-24 11:36 53.89025 47.84727 5151 ft 168 kts 360°
2026-04-24 11:36 53.89801 47.84739 5050 ft 169 kts 360°
2026-04-24 11:36 53.91361 47.84762 4844 ft 170 kts
2026-04-24 11:36 53.92544 47.84780 4687 ft 170 kts
2026-04-24 11:37 53.93723 47.84797 4540 ft 168 kts
2026-04-24 11:37 53.94887 47.84815 4393 ft 166 kts
2026-04-24 11:37 53.96039 47.84832 4239 ft 165 kts
2026-04-24 11:37 53.96811 47.84844 4129 ft 164 kts
2026-04-24 11:38 53.97948 47.84862 3975 ft 163 kts
2026-04-24 11:38 53.99084 47.84879 3818 ft 163 kts
2026-04-24 11:38 54.00205 47.84896 3659 ft 163 kts
2026-04-24 11:38 54.01353 47.84914 3499 ft 163 kts
2026-04-24 11:39 54.02471 47.84931 3348 ft 163 kts
2026-04-24 11:39 54.03596 47.84948 3190 ft 160 kts
2026-04-24 11:39 54.04711 47.84964 3037 ft 161 kts
2026-04-24 11:39 54.05814 47.84983 2957 ft 158 kts
2026-04-24 11:40 54.06937 47.84996 2931 ft 165 kts
2026-04-24 11:40 54.08106 47.85013 2909 ft 171 kts
2026-04-24 11:40 54.09308 47.85032 2883 ft 175 kts
2026-04-24 11:40 54.10537 47.85052 2864 ft 179 kts
2026-04-24 11:41 54.11794 47.85072 2835 ft 180 kts
2026-04-24 11:41 54.13028 47.85091 2818 ft 175 kts
2026-04-24 11:41 54.14228 47.85110 2792 ft 170 kts
2026-04-24 11:41 54.15398 47.85128 2795 ft 167 kts
2026-04-24 11:42 54.16559 47.85146 2793 ft 167 kts
2026-04-24 11:42 54.17722 47.85163 2798 ft 167 kts
2026-04-24 11:42 54.18885 47.85183 2794 ft 167 kts
2026-04-24 11:42 54.20041 47.85199 2793 ft 166 kts
2026-04-24 11:43 54.21189 47.85229 2787 ft 163 kts
2026-04-24 11:43 54.22242 47.85769 2787 ft 155 kts 35°
2026-04-24 11:43 54.23074 47.86881 2790 ft 151 kts 49°
2026-04-24 11:43 54.23860 47.88064 2791 ft 151 kts 50°
2026-04-24 11:44 54.24672 47.89295 2802 ft 162 kts 49°
2026-04-24 11:44 54.25544 47.90616 2798 ft 172 kts 48°
2026-04-24 11:44 54.26461 47.91999 2800 ft 177 kts 46°
2026-04-24 11:44 54.27385 47.93387 2793 ft 174 kts 47°
2026-04-24 11:45 54.28277 47.94732 2797 ft 168 kts 47°
2026-04-24 11:45 54.29150 47.96050 2796 ft 166 kts 49°
2026-04-24 11:45 54.30000 47.97337 2799 ft 165 kts 47°
2026-04-24 11:45 54.30860 47.98639 2798 ft 165 kts 47°
2026-04-24 11:46 54.31714 47.99931 2801 ft 163 kts 47°
2026-04-24 11:46 54.32569 48.01224 2801 ft 164 kts 47°
2026-04-24 11:46 54.33420 48.02513 2795 ft 163 kts 48°
2026-04-24 11:46 54.34267 48.03809 2805 ft 162 kts 47°
2026-04-24 11:47 54.35115 48.05076 2800 ft 162 kts 47°
2026-04-24 11:47 54.35956 48.06358 2798 ft 162 kts 48°
2026-04-24 11:47 54.36796 48.07643 2811 ft 162 kts 48°
2026-04-24 11:47 54.37641 48.08931 2806 ft 162 kts 47°
2026-04-24 11:48 54.38493 48.10209 2793 ft 163 kts 48°
2026-04-24 11:48 54.39358 48.11525 2632 ft 167 kts 48°
2026-04-24 11:48 54.40221 48.12837 2479 ft 165 kts 47°
2026-04-24 11:48 54.41074 48.14138 2320 ft 163 kts 47°
2026-04-24 11:49 54.41902 48.15398 2308 ft 155 kts 47°
2026-04-24 11:49 54.42695 48.16642 2292 ft 151 kts 57°
2026-04-24 11:49 54.43002 48.18199 2292 ft 132 kts 103°
2026-04-24 11:49 54.42600 48.19434 2293 ft 118 kts 149°
2026-04-24 11:50 54.41814 48.19624 2294 ft 120 kts 194°
2026-04-24 11:50 54.41202 48.18609 2299 ft 134 kts 239°
2026-04-24 11:50 54.41208 48.16958 2308 ft 149 kts 285°
2026-04-24 11:50 54.41776 48.15443 2304 ft 152 kts 302°
2026-04-24 11:51 54.42424 48.14013 2302 ft 151 kts 300°
2026-04-24 11:51 54.43040 48.12570 2288 ft 152 kts 314°
2026-04-24 11:51 54.43998 48.11884 2293 ft 151 kts 360°
2026-04-24 11:51 54.44954 48.12401 2298 ft 142 kts 45°
2026-04-24 11:52 54.45438 48.13758 2300 ft 131 kts 90°
2026-04-24 11:52 54.45277 48.15193 2311 ft 120 kts 121°
2026-04-24 11:52 54.44850 48.16412 2303 ft 119 kts 131°
2026-04-24 11:52 54.44387 48.17592 2303 ft 119 kts 129°
2026-04-24 11:53 54.43939 48.18792 2298 ft 120 kts 129°
2026-04-24 11:53 54.43487 48.19981 2296 ft 118 kts 129°
2026-04-24 11:53 54.43048 48.21161 2290 ft 117 kts 129°
2026-04-24 11:53 54.42598 48.22386 2154 ft 125 kts 129°
2026-04-24 11:54 54.42126 48.23668 2026 ft 129 kts 129°
2026-04-24 11:54 54.41656 48.24959 2003 ft 125 kts 129°
2026-04-24 11:54 54.41199 48.26210 2001 ft 122 kts 129°
2026-04-24 11:54 54.40753 48.27431 2002 ft 120 kts 129°
2026-04-24 11:55 54.40309 48.28627 1996 ft 117 kts 130°
2026-04-24 11:55 54.39739 48.29541 1999 ft 111 kts 148°
2026-04-24 11:55 54.39112 48.30318 1995 ft 111 kts 148°
2026-04-24 11:55 54.38488 48.31090 1992 ft 110 kts 148°
2026-04-24 11:56 54.37885 48.31844 1989 ft 105 kts 148°
2026-04-24 11:56 54.37315 48.32571 2004 ft 102 kts 148°
2026-04-24 11:56 54.36661 48.32831 2002 ft 102 kts 191°
2026-04-24 11:56 54.36026 48.32248 2007 ft 104 kts 204°
2026-04-24 11:57 54.35419 48.31617 1998 ft 94 kts 204°
2026-04-24 11:57 54.34926 48.31092 1984 ft 76 kts 204°
2026-04-24 11:57 54.34480 48.30606 1885 ft 76 kts 204°
2026-04-24 11:57 54.34032 48.30124 1797 ft 78 kts 204°
2026-04-24 11:58 54.33555 48.29604 1680 ft 84 kts 204°
2026-04-24 11:58 54.33052 48.29062 1556 ft 85 kts 204°
2026-04-24 11:58 54.32555 48.28526 1438 ft 84 kts 205°
2026-04-24 11:58 54.32066 48.27992 1329 ft 85 kts 205°
2026-04-24 11:59 54.31552 48.27440 1192 ft 89 kts 206°
2026-04-24 11:59 54.31019 48.26865 1067 ft 91 kts 207°
2026-04-24 11:59 54.30484 48.26283 938 ft 91 kts 205°
2026-04-24 11:59 54.29958 48.25721 817 ft 86 kts 204°
2026-04-24 12:00 54.29466 48.25162 713 ft 82 kts 206°
2026-04-24 12:00 54.28985 48.24664 608 ft 81 kts 205°
2026-04-24 12:00 54.28483 48.24133 520 ft 88 kts 207°
2026-04-24 12:00 54.28008 48.23622 405 ft 66 kts 208°
2026-04-24 12:01 54.27711 48.23312 401 ft 38 kts 212°
2026-04-24 12:01 54.27535 48.23116 403 ft 24 kts 211°
2026-04-24 12:01 54.27418 48.22989 402 ft 18 kts 211°
2026-04-24 12:01 54.27280 48.22841 400 ft 29 kts 210°
2026-04-24 12:02 54.27167 48.22724 399 ft 13 kts 188°
2026-04-24 12:02 54.27075 48.22757 400 ft 15 kts 167°
2026-04-24 12:02 54.26995 48.22788 400 ft 0 kts 167°
2026-04-24 12:03 54.26950 48.22804 400 ft 11 kts 166°
2026-04-24 12:03 54.26921 48.22886 400 ft 9 kts 53°
2026-04-24 12:03 54.26978 48.22952 399 ft 11 kts 33°
2026-04-24 12:03 54.27024 48.23040 399 ft 12 kts 115°
2026-04-24 12:04 54.26978 48.23166 399 ft 13 kts 123°
2026-04-24 12:04 54.26972 48.23279 399 ft 12 kts 27°
2026-04-24 12:04 54.26984 48.23327 400 ft 2 kts 126°
2026-04-24 12:04 54.26983 48.23327 399 ft 0 kts 126°
2026-04-24 12:05 54.26978 48.23343 399 ft 7 kts 101°
2026-04-24 12:05 54.27070 48.23459 399 ft 23 kts 34°
2026-04-24 12:06 54.27124 48.23560 399 ft 12 kts 123°
2026-04-24 12:06 54.27089 48.23672 399 ft 4 kts 40°
2026-04-24 12:06 54.27096 48.23679 399 ft 0 kts 27°